Location: Greenwich
(51.4790°N, 0.0090°E)
Time: 14:42:17
(UTC+01:00)

A-11 Canister half - Visible Passes

Search period start: 16 April 2026 00:00
Search period end: 26 April 2026 00:00
Orbit: 1523 x 1684 km, 47.3° (Epoch: 16 April)

Date Brightness Start Highest point End Pass type
(mag) Time Alt. Az. Time Alt. Az. Time Alt. Az.
16 Apr 9.6 01:38:31 37° SSE 01:39:00 38° SE 01:47:58 10° E visible
16 Apr 9.2 03:36:45 26° WSW 03:43:04 65° SSE 03:53:01 10° E visible
17 Apr 9.6 01:17:18 36° SE 01:17:18 36° SE 01:26:04 10° E visible
17 Apr 9.2 03:15:32 29° SW 03:21:12 64° SSE 03:31:10 10° E visible
17 Apr 9.3 05:15:50 10° W 05:25:55 69° S 05:35:51 10° ESE visible
18 Apr 9.7 00:56:01 35° SE 00:56:01 35° SE 01:04:10 10° E visible
18 Apr 9.1 02:54:15 33° SW 02:59:20 63° SSE 03:09:17 10° E visible
18 Apr 9.2 04:53:57 10° W 05:04:03 69° S 05:14:01 10° ESE visible
19 Apr 9.8 00:34:40 33° SE 00:34:40 33° SE 00:42:14 10° E visible
19 Apr 9.1 02:32:53 36° SW 02:37:28 62° SSE 02:47:26 10° E visible
19 Apr 9.2 04:32:05 10° W 04:42:10 70° S 04:52:10 10° ESE visible
20 Apr 9.8 00:13:14 31° SE 00:13:14 31° SE 00:20:19 10° E visible
20 Apr 9.1 02:11:26 38° SW 02:15:38 61° SSE 02:25:33 10° E visible
20 Apr 9.2 04:10:13 10° W 04:20:19 70° S 04:30:20 10° ESE visible
20 Apr 9.9 23:51:39 29° ESE 23:51:39 29° ESE 23:58:24 10° E visible
21 Apr 9.1 01:49:50 39° SW 01:53:46 60° SSE 02:03:41 10° E visible
21 Apr 9.1 03:48:21 10° W 03:58:26 71° S 04:08:28 10° ESE visible
21 Apr 9.9 23:29:51 28° ESE 23:29:51 28° ESE 23:36:27 10° E visible
22 Apr 9.1 01:28:01 39° SW 01:31:55 59° SSE 01:41:48 10° E visible
22 Apr 9.1 03:26:29 10° W 03:36:34 71° S 03:46:37 10° ESE visible
22 Apr 9.8 23:07:41 27° SE 23:07:41 27° SE 23:14:30 10° E visible
23 Apr 9.1 01:05:49 36° SW 01:10:04 57° SSE 01:19:55 10° E visible
23 Apr 9.1 03:04:37 10° W 03:14:42 71° S 03:24:46 10° ESE visible
23 Apr 9.4 05:09:29 10° W 05:19:13 53° SSW 05:28:50 10° SE visible
23 Apr 9.8 22:44:36 27° SE 22:44:39 27° SE 22:52:32 10° E visible
24 Apr 9.1 00:42:34 28° SW 00:48:14 56° SSE 00:58:04 10° E visible
24 Apr 9.1 02:42:45 10° W 02:52:49 71° S 03:02:54 10° E visible
24 Apr 9.3 04:47:36 10° W 04:57:22 54° SSW 05:07:03 10° SE visible
24 Apr 9.8 22:15:20 10° S 22:22:53 26° SE 22:30:34 10° E visible
25 Apr 9.1 00:16:45 10° SW 00:26:23 55° SSE 00:36:11 10° E visible
25 Apr 9.0 02:20:55 10° W 02:30:57 71° S 02:41:03 10° E visible
25 Apr 9.3 04:25:44 10° W 04:35:32 56° SSW 04:45:16 10° SE visible
25 Apr 9.8 21:53:46 10° S 22:01:07 24° SE 22:08:35 10° E visible
